Home   Weather   Gunsan   Past weeks

Flag for South Korea Past Weather in Gunsan, South Korea — Yesterday and Last 2 Weeks

Now
45 °F

Sunny.


Feels Like: 38 °F
Forecast: 27 / 47 °F
Wind: 15 mph from Northwest

Location: Kunsan Ab

Current Time: Feb 26, 2017 at 4:48:09 pm

Latest Report: Feb 26, 2017 at 3:58 pm


Visibility: 10 mi

Pressure: 30.25 "Hg

Humidity: 52%

Dew Point: 28 °F

Location of GunsanLocation

Past Weather in Gunsan — Graph

°F

Gunsan Temperature Yesterday

Maximum temperature yesterday: 44 °F (at 2:58 pm)
Minimum temperature yesterday: 28 °F (at 5:58 am)
Average temperature yesterday: 37 °F

High & Low Weather Summary for the Past Weeks

 TemperatureHumidityPressure
High56 °F (Feb 16, 3:58 pm)100% (Feb 14, 12:33 am)30.55 "Hg (Feb 14, 12:33 am)
Low23 °F (Feb 21, 7:58 am)36% (Feb 19, 11:58 am)29.75 "Hg (Feb 19, 11:37 pm)
Average36 °F78%30.20 "Hg
* Reported Feb 11 2:58 pm — Feb 26 2:58 pm, Gunsan, Weather by CustomWeather, © 2017

Note: Actual official high and low records may vary slightly from our data, if they occured in-between our weather recording intervals... More about our weather records

Advertising

Gunsan Weather History for the Previous 24 Hours

Scroll right to see more
 ConditionsComfort  
Time TempWeatherWind HumidityBarometerVisibility
2:58 pm
Sun, Feb 26
44 °FSunny.14 mph59%30.25 "Hg9 mi
1:58 pm44 °FSunny.15 mph57%30.25 "Hg9 mi
12:58 pm45 °FSunny.9 mph58%30.27 "Hg8 mi
11:58 am44 °FPassing clouds.No wind58%30.28 "Hg9 mi
10:58 am42 °FHaze.3 mph72%30.29 "Hg6 mi
9:58 am39 °FSunny.5 mph85%30.28 "Hg5 mi
8:58 am36 °FFog.3 mph100%30.27 "Hg2 mi
8:44 am36 °FFog.3 mph93%30.26 "Hg3 mi
8:20 am32 °FIce fog.5 mph100%30.26 "Hg2 mi
7:58 am31 °FIce fog.5 mph99%30.27 "Hg2 mi
7:31 am32 °FIce fog.6 mph100%30.25 "Hg2 mi
6:58 am33 °FClear.3 mph100%30.25 "Hg7 mi
6:37 am32 °FIce fog.No wind100%30.24 "Hg6 mi
6:10 am34 °FFog.3 mph93%30.23 "Hg5 mi
5:58 am34 °FFog.No wind98%30.24 "Hg6 mi
4:58 am34 °FClear.5 mph99%30.23 "Hg8 mi
3:58 am33 °FClear.6 mph98%30.22 "Hg7 mi
3:26 am36 °FClear.7 mph93%30.21 "Hg10 mi
2:58 am36 °FClear.8 mph92%30.22 "Hg10 mi
2:41 am34 °FClear.7 mph93%30.21 "Hg10 mi
1:58 am35 °FClear.5 mph92%30.22 "Hg8 mi
1:19 am36 °FFog.3 mph100%30.20 "Hg5 mi
12:58 am38 °FFog.7 mph99%30.21 "Hg5 mi
12:28 am39 °FFog.8 mph100%30.21 "Hg5 mi
11:58 pm
Sat, Feb 25
39 °FFog.8 mph98%30.21 "Hg6 mi
11:02 pm39 °FClear.7 mph93%30.19 "Hg10 mi
9:58 pm39 °FClear.8 mph85%30.20 "Hg10 mi
8:58 pm39 °FClear.7 mph84%30.18 "Hg10 mi
7:58 pm39 °FClear.6 mph86%30.17 "Hg10 mi
6:58 pm39 °FClear.7 mph84%30.16 "Hg10 mi
5:58 pm41 °FSunny.8 mph74%30.15 "Hg10 mi
4:58 pm44 °FSunny.9 mph64%30.16 "Hg10 mi
Weather by CustomWeather, © 2017

See weather overviewHow to use our weather pages